This is the latest recevied weather packets stored in our database for station/object WAYLND-WX. If no packets are shown the sender has not sent any weather packets the latest 1 day(s).
| Time | Temp. | Humidity | Pressure | Rain* | Wind** | Luminosity | Snow |
|---|---|---|---|---|---|---|---|
| 1777992344 | 10.56° C | 50% | 979.6 hPa | 0 mm | 5.36 m/s, 285° | - | - |
| 1777991463 | 9.44° C | 42% | 979.5 hPa | 0 mm | 5.36 m/s, 284° | - | - |
| 1777990544 | 10.56° C | 42% | 979.5 hPa | 0 mm | 5.81 m/s, 278° | - | - |
| 1777989685 | 10° C | 42% | 979.5 hPa | 0 mm | 5.36 m/s, 279° | - | - |
| 1777988744 | 10° C | 57% | 979.5 hPa | 0 mm | 5.36 m/s, 276° | - | - |
| 1777987864 | 10° C | 57% | 979.5 hPa | 0 mm | 5.81 m/s, 299° | - | - |
| 1777986944 | 10° C | 57% | 979.5 hPa | 0 mm | 6.26 m/s, 298° | - | - |
| 1777986077 | 10° C | 57% | 979.5 hPa | 0 mm | 4.92 m/s, 299° | - | - |
| 1777985143 | 10.56° C | 72% | 978.8 hPa | 0 mm | 5.36 m/s, 282° | - | - |
| 1777984263 | 10.56° C | 73% | 977.1 hPa | 0 mm | 3.13 m/s, 301° | - | - |
| 1777983344 | 10° C | 73% | 977.1 hPa | 0 mm | 3.58 m/s, 301° | - | - |
| 1777982489 | 9.44° C | 73% | 977.1 hPa | 0 mm | 3.13 m/s, 292° | - | - |
| 1777981544 | 9.44° C | 70% | 977.3 hPa | 0 mm | 4.02 m/s, 287° | - | - |
| 1777980661 | 9.44° C | 71% | 975.8 hPa | 0 mm | 3.58 m/s, 285° | - | - |
| 1777979744 | 9.44° C | 71% | 975.7 hPa | 0 mm | 2.68 m/s, 297° | - | - |
| 1777978881 | 8.89° C | 71% | 975.7 hPa | 0 mm | 3.58 m/s, 288° | - | - |
| 1777977943 | 8.89° C | 59% | 974.6 hPa | 0 mm | 4.02 m/s, 278° | - | - |
| 1777977062 | 9.44° C | 59% | 974.3 hPa | 0 mm | 4.02 m/s, 273° | - | - |
| 1777976143 | 10° C | 59% | 974.3 hPa | 0 mm | 4.47 m/s, 269° | - | - |
| 1777975280 | 10° C | 59% | 974.3 hPa | 0 mm | 4.47 m/s, 268° | - | - |
| 1777974343 | 10° C | 60% | 974.5 hPa | 0 mm | 4.47 m/s, 271° | - | - |
| 1777973466 | 10.56° C | 63% | 974.3 hPa | 0 mm | 4.47 m/s, 275° | - | - |
| 1777972544 | 10.56° C | 63% | 974.3 hPa | 0 mm | 4.02 m/s, 263° | - | - |
| 1777971683 | 10.56° C | 63% | 974.3 hPa | 0 mm | 4.47 m/s, 261° | - | - |
| 1777970742 | 11.11° C | 73% | 974.5 hPa | 0 mm | 4.47 m/s, 272° | - | - |
* Rain latest hour (hover to see other rain measurements)
** Current wind speed in m/s (hover to see current wind gust speed)